Ottumwa, IA

11:30 AM CDT on April 27, 2017 (GMT -0500)
Ottumwa Industrial

Weather History for KOTM - March, 2013

Change the Weather History Date:

Sunday, March 10, 2013

  Actual Average Record
Temperature  
Mean Temperature 42 °F -  
Max Temperature 49 °F - 73 °F (1917)
Min Temperature 34 °F - -12 °F (1934)
Degree Days  
Heating Degree Days 23    
Month to date heating degree days 362  
Since 1 July heating degree days 4889  
Cooling Degree Days 0 0  
Month to date cooling degree days 0 0  
Year to date cooling degree days 0 0  
Moisture  
Dew Point 40 °F    
Average Humidity 96    
Maximum Humidity 100    
Minimum Humidity 92    
Precipitation  
Precipitation 0.41 in - 1.30 in (1990)
Month to date precipitation 1.82  
Year to date precipitation 5.15  
Sea Level Pressure  
Sea Level Pressure 29.65 in    
Wind  
Wind Speed 8 mph (WNW)    
Max Wind Speed 24 mph    
Max Gust Speed 29 mph    
Visibility 3 miles    
Events Fog , Rain    
T = Trace of Precipitation, MM = Missing Value Source: NWS Daily Summary

Daily Weather History Graph

Daily Weather History Graph

Search for Another Location

Airport or City:

Trip Planner

Search our weather history database for the weather conditions in past years. The results will help you decide how hot, cold, wet, or windy it might be!

Date:

Astronomy

Mar. 10, 2013 Rise Set
Actual Time 7:29 AM CDT 7:11 PM CDT
Civil Twilight 7:01 AM CDT 7:38 PM CDT
Nautical Twilight 6:29 AM CDT 8:10 PM CDT
Astronomical Twilight 5:57 AM CDT 8:42 PM CDT
Moon 6:29 AM CDT (3/10) 6:19 PM CDT (3/10)
Length of Visible Light 12h 36m
Length of Day
11h 42m
Waning Crescent, 2% of the Moon is Illuminated
Mar 10
Waning Crescent
Mar 11
New
Mar 19
First Quarter
Mar 27
Full
Apr 2
Last Quarter

Hourly Weather History & Observations

Time (CDT) Temp. Windchill Dew Point Humidity Pressure Visibility Wind Dir Wind Speed Gust Speed Precip Events Conditions
12:01 AM 46.4 °F 39.2 °F 44.6 °F 93% 29.66 in 3.0 mi SSE 18.4 mph 28.8 mph 0.00 in Rain Light Rain
12:41 AM 46.4 °F 40.4 °F 46.4 °F 100% 29.68 in 2.5 mi South 13.8 mph - 0.02 in Rain Light Rain
12:53 AM 46.9 °F - 45.0 °F 93% 29.68 in 2.0 mi SSE 17.3 mph - 0.02 in Rain Light Rain
1:09 AM 46.4 °F 39.2 °F 46.4 °F 100% 29.65 in 3.0 mi SSE 18.4 mph - 0.01 in Rain Light Rain
1:19 AM 48.2 °F - 46.4 °F 93% 29.65 in 4.0 mi SSE 17.3 mph 25.3 mph 0.01 in Rain Light Rain
1:53 AM 48.0 °F - 46.9 °F 96% 29.66 in 6.0 mi South 16.1 mph - 0.02 in   Overcast
3:15 AM 46.4 °F 41.5 °F 44.6 °F 93% 29.62 in 3.0 mi SE 10.4 mph - 0.00 in Rain Light Rain
3:53 AM 46.0 °F 43.9 °F 44.1 °F 93% 29.61 in 1.5 mi ESE 4.6 mph - 0.00 in   Mostly Cloudy
4:00 AM 46.4 °F 44.3 °F 44.6 °F 93% 29.60 in 1.2 mi East 4.6 mph - N/A   Mostly Cloudy
4:18 AM 44.6 °F 39.7 °F 44.6 °F 100% 29.62 in 0.8 mi South 9.2 mph - N/A   Mostly Cloudy
4:25 AM 44.6 °F 39.7 °F 44.6 °F 100% 29.62 in 2.0 mi South 9.2 mph - N/A   Overcast
4:44 AM 46.4 °F 40.1 °F 46.4 °F 100% 29.62 in 4.0 mi South 15.0 mph - N/A   Overcast
4:53 AM 46.9 °F - 46.0 °F 97% 29.64 in 6.0 mi South 17.3 mph 24.2 mph N/A   Overcast
5:04 AM 46.4 °F 40.1 °F 46.4 °F 100% 29.63 in 5.0 mi South 15.0 mph - N/A   Overcast
5:23 AM 46.4 °F 40.1 °F 46.4 °F 100% 29.63 in 4.0 mi South 15.0 mph - N/A   Overcast
5:53 AM 45.0 °F 39.3 °F 45.0 °F 100% 29.65 in 1.8 mi South 11.5 mph - N/A   Overcast
6:12 AM 44.6 °F 39.7 °F 44.6 °F 100% 29.62 in 0.8 mi South 9.2 mph - N/A   Mist
6:46 AM 44.6 °F 42.2 °F 44.6 °F 100% 29.64 in 0.2 mi SSW 4.6 mph - N/A Fog Fog
6:53 AM 44.1 °F 42.5 °F 43.0 °F 96% 29.66 in 0.2 mi SW 3.5 mph - N/A Fog Fog
7:53 AM 43.0 °F 41.3 °F 42.1 °F 97% 29.67 in 0.2 mi East 3.5 mph - N/A Fog Fog
8:53 AM 41.0 °F - 41.0 °F 100% 29.69 in 0.2 mi Calm Calm - 0.01 in Fog Fog
9:53 AM 39.0 °F 34.0 °F 39.0 °F 100% 29.71 in 0.2 mi West 6.9 mph - 0.04 in Fog , Rain Light Rain
10:10 AM 37.4 °F 32.8 °F 37.4 °F 100% 29.68 in 0.8 mi NW 5.8 mph - 0.00 in Rain Light Rain
10:40 AM 37.4 °F 30.8 °F 37.4 °F 100% 29.67 in 1.5 mi NW 9.2 mph - 0.00 in   Overcast
10:53 AM 37.9 °F 32.1 °F 37.9 °F 100% 29.70 in 1.5 mi WNW 8.1 mph - 0.00 in   Overcast
11:53 AM 37.9 °F 30.9 °F 37.9 °F 100% 29.68 in 1.5 mi North 10.4 mph - 0.03 in Rain Light Rain
12:53 PM 37.9 °F 31.5 °F 37.0 °F 97% 29.68 in 0.8 mi North 9.2 mph - 0.00 in Rain Light Rain
1:43 PM 37.4 °F 30.3 °F 37.4 °F 100% 29.64 in 1.0 mi North 10.4 mph - 0.03 in Rain Light Rain
1:53 PM 37.9 °F 32.1 °F 37.0 °F 97% 29.65 in 1.2 mi NNE 8.1 mph - 0.04 in Rain Light Rain
2:24 PM 37.4 °F 30.3 °F 37.4 °F 100% 29.61 in 3.0 mi NE 10.4 mph - 0.01 in Rain Light Rain
2:44 PM 37.4 °F 31.4 °F 37.4 °F 100% 29.62 in 2.5 mi NNE 8.1 mph - 0.02 in Rain Light Rain
2:53 PM 37.9 °F 35.5 °F 37.9 °F 100% 29.64 in 4.0 mi North 3.5 mph - 0.02 in Rain Light Rain
3:13 PM 37.4 °F 32.1 °F 37.4 °F 100% 29.63 in 2.5 mi WNW 6.9 mph - 0.01 in Rain Light Rain
3:21 PM 37.4 °F 32.8 °F 37.4 °F 100% 29.62 in 4.0 mi NW 5.8 mph - 0.01 in Rain Light Rain
3:39 PM 37.4 °F 34.9 °F 37.4 °F 100% 29.63 in 1.8 mi West 3.5 mph - 0.05 in Rain Rain
3:51 PM 37.4 °F 32.1 °F 37.4 °F 100% 29.63 in 2.0 mi WNW 6.9 mph - 0.07 in Rain Rain
3:53 PM 37.9 °F 32.7 °F 37.9 °F 100% 29.64 in 2.0 mi WNW 6.9 mph - 0.08 in Rain Rain
4:12 PM 37.4 °F 32.8 °F 37.4 °F 100% 29.63 in 2.5 mi NNW 5.8 mph - 0.04 in Rain Rain
4:17 PM 37.4 °F - 37.4 °F 100% 29.63 in 3.0 mi Calm Calm - 0.05 in Rain Light Rain
4:36 PM 37.4 °F 33.8 °F 37.4 °F 100% 29.62 in 2.5 mi NNW 4.6 mph - 0.09 in Rain Rain
4:43 PM 37.4 °F 34.9 °F 37.4 °F 100% 29.62 in 3.0 mi NW 3.5 mph - 0.10 in Rain Light Rain
4:53 PM 37.9 °F 34.4 °F 37.9 °F 100% 29.63 in 5.0 mi NNW 4.6 mph - 0.10 in Rain Light Rain
5:20 PM 37.4 °F 32.8 °F 37.4 °F 100% 29.61 in 4.0 mi North 5.8 mph - 0.03 in Rain Light Rain
5:46 PM 37.4 °F 33.8 °F 37.4 °F 100% 29.62 in 4.0 mi NNW 4.6 mph - 0.04 in Rain Light Rain
5:53 PM 37.9 °F 33.5 °F 37.9 °F 100% 29.63 in 4.0 mi WNW 5.8 mph - 0.04 in Rain Light Rain
6:53 PM 37.0 °F 30.4 °F 36.0 °F 96% 29.65 in 6.0 mi WNW 9.2 mph - 0.01 in Rain Light Rain
7:53 PM 37.0 °F 29.3 °F 36.0 °F 96% 29.66 in 10.0 mi WNW 11.5 mph - 0.00 in   Overcast
8:53 PM 36.0 °F 28.5 °F 35.1 °F 97% 29.67 in 7.0 mi NW 10.4 mph - 0.00 in Rain Light Rain
9:53 PM 35.1 °F 28.6 °F 34.0 °F 96% 29.68 in 10.0 mi NW 8.1 mph - 0.00 in   Overcast
10:53 PM 34.0 °F 26.6 °F 33.1 °F 96% 29.69 in 8.0 mi WNW 9.2 mph - N/A   Overcast
11:53 PM 34.0 °F 27.2 °F 33.1 °F 96% 29.69 in 5.0 mi NW 8.1 mph - N/A   Overcast
12:28 AM 33.8 °F 26.4 °F 33.8 °F 100% 29.67 in 2.5 mi WNW 9.2 mph - N/A   Overcast
12:53 AM 34.0 °F 26.6 °F 33.1 °F 96% 29.69 in 2.5 mi NW 9.2 mph - N/A   Overcast